Wind_Speed
8 3 7 12 12 12 10 11 9 6 10 7 8 17 18 17 15 10 8 11 13 11 20 27 25 24 23 21 20 21 19 11 15 13 11 10 11 11 11 11 11 8 3 5
7 9 13 16 17 11 10 11 12 13 13 8 10 16 16 11 12 17 12 12 14 12 18 23 25 26 27 27 23 23 20 18 15 11 10 8 7 8 11 8 5 3 2 2
11 10 19 20 17 12 11 7 15 12 13 10 10 4 2 6 9 14 17 15 11 13 16 17 22 24 25 31 26 23 20 18 15 11 9 7 6 7 5 1 10 6 1 6
11 15 21 20 18 11 7 6 6 12 20 9 10 6 5 13 12 15 18 17 13 16 15 14 18 20 27 32 29 25 22 18 15 12 14 11 8 2 3 9 9 2 3 4
14 16 19 20 16 8 8 9 6 6 4 5 12 5 12 13 11 7 13 18 17 20 20 18 20 24 29 32 31 27 23 19 19 18 14 9 6 5 8 8 5 7 5 7
12 13 15 15 13 11 6 3 5 7 1 1 7 8 5 14 17 19 15 20 18 21 22 20 29 30 31 32 30 29 26 22 22 16 11 6 4 3 2 1 1 1 6 6
13 20 16 15 8 9 5 4 2 2 1 6 8 7 9 21 19 21 20 15 14 24 23 22 22 26 32 32 34 33 30 25 21 16 13 11 11 7 4 5 4 5 2 4
9 13 19 14 10 11 8 9 6 5 4 8 10 6 4 21 22 21 18 16 13 20 22 23 21 29 34 34 36 35 34 27 23 21 19 14 10 9 10 9 10 5 3 1
10 13 13 12 6 10 10 5 9 5 5 3 4 6 7 17 15 16 21 15 12 11 19 22 23 32 34 33 35 40 37 31 26 23 20 16 10 11 8 7 5 5 4 4
13 7 14 9 10 13 11 7 2 3 2 5 5 2 5 8 9 13 12 15 13 18 16 18 19 30 32 35 37 40 38 35 30 26 22 17 16 15 10 8 6 6 5 5
19 8 14 11 8 9 2 4 4 6 5 5 3 4 5 10 10 11 10 10 13 22 16 18 19 33 35 34 37 39 39 36 32 28 26 18 20 17 14 12 8 8 7 6
23 5 11 14 8 13 9 9 9 5 4 1 6 5 9 11 9 9 9 9 7 9 20 18 18 31 32 32 33 36 35 36 34 28 27 20 18 14 16 14 10 9 8 8
15 13 10 6 8 12 15 9 8 7 4 4 3 3 2 8 7 8 9 8 9 9 9 15 18 20 30 31 32 33 33 33 34 30 27 23 19 19 17 14 12 10 9 9
13 7 8 7 9 11 11 13 8 9 5 6 6 7 5 6 5 10 9 8 9 8 9 15 18 21 31 33 33 32 32 37 35 32 29 25 24 22 19 16 15 14 13 11
14 8 7 8 7 3 9 6 9 8 8 8 7 10 11 11 8 9 9 6 5 7 8 11 12 19 27 29 30 34 35 38 39 36 33 30 25 24 21 19 18 17 16 15
7 6 4 2 2 5 6 15 14 17 13 7 8 7 13 16 10 7 8 8 5 2 6 9 9 12 21 29 34 39 37 41 42 39 35 30 29 27 23 21 22 21 18 17
9 6 4 5 1 6 6 5 5 8 14 16 12 8 6 9 9 8 7 7 4 2 2 2 8 9 22 30 34 37 30 37 39 36 33 33 31 29 27 26 24 22 22 19
5 5 4 4 3 6 6 8 5 15 13 16 9 13 14 11 10 8 8 8 8 6 6 3 4 11 25 28 30 32 39 39 36 34 31 30 29 28 29 29 27 24 22 20
6 5 6 5 6 4 5 8 3 4 3 9 17 13 20 14 10 6 2 8 8 8 4 2 4 21 27 32 35 33 37 37 32 32 35 30 29 30 31 29 26 23 21 19
12 9 6 4 5 0 7 6 6 6 4 5 14 11 6 5 6 3 7 8 8 7 7 3 4 25 28 29 35 37 34 29 29 35 35 32 32 32 30 27 26 24 21 21
3 5 5 5 3 7 9 13 11 5 7 8 6 12 9 5 5 2 6 1 7 9 12 8 4 22 26 30 33 32 33 29 35 36 33 34 33 31 29 27 26 24 20 18
7 3 1 4 4 4 14 8 5 2 5 9 8 7 8 5 6 8 7 6 5 8 10 17 11 23 29 35 33 31 30 40 39 36 37 33 30 30 28 24 18 16 9 2
5 3 4 2 5 4 4 6 11 8 6 7 8 7 7 7 6 6 6 5 7 9 12 20 24 22 16 18 17 17 24 26 27 24 31 27 26 22 18 14 13 7 7 8
5 1 3 1 4 3 7 10 14 14 11 6 7 6 7 7 9 8 7 8 7 5 9 15 23 23 20 29 30 27 29 30 24 24 24 32 8 7 7 9 8 5 2 8
2 2 2 4 9 4 4 3 7 9 11 19 12 8 8 9 8 4 2 6 6 9 17 25 23 22 23 29 29 28 28 23 4 11 9 17 24 11 6 4 7 9 8 6
4 6 4 2 1 6 8 8 6 9 8 7 8 9 9 7 4 9 8 6 7 11 17 18 20 24 21 20 18 18 15 15 16 21 22 12 7 4 8 12 13 10 7 5
Wind_Direction
236 219 239 242 247 253 201 183 127 221 209 139 152 151 170 177 171 174 172 158 160 166 154 154 164 173 170 172 177 175 177 178 183 177 186 202 228 244 257 261 259 262 290 296
227 217 241 245 251 228 240 156 181 223 182 125 168 162 176 152 177 175 176 178 174 173 154 161 168 180 188 179 184 173 170 171 185 193 203 213 231 251 269 267 242 193 269 16
215 214 236 244 256 240 245 177 208 166 178 154 125 161 126 231 170 203 175 178 185 167 156 166 173 183 175 173 170 173 180 185 192 195 197 212 236 265 260 194 172 191 215 298
218 235 228 240 251 228 245 270 283 161 148 176 178 196 203 206 238 201 177 180 182 161 159 153 168 171 160 174 173 178 182 180 188 192 208 208 208 225 167 153 153 106 2 316
218 225 229 237 247 241 215 260 244 264 194 167 187 110 220 180 242 193 184 182 183 167 166 166 170 186 169 171 176 179 184 181 182 172 153 148 108 96 84 128 129 353 348 307
233 221 231 230 241 255 235 213 286 250 169 53 215 154 178 179 196 204 175 185 183 171 171 173 176 181 171 175 180 181 179 174 176 183 180 177 161 159 142 95 1 312 321 325
222 238 246 234 204 234 187 151 274 348 351 225 253 259 195 195 187 194 208 184 190 174 174 177 178 176 171 176 177 180 174 170 180 181 175 179 179 177 191 151 184 162 79 92
220 240 235 236 200 194 202 166 156 195 199 242 246 233 239 184 192 191 204 201 179 180 177 179 179 177 174 175 173 173 176 178 185 182 179 179 179 197 224 202 165 166 218 268
208 240 252 221 168 170 225 182 191 187 237 317 231 172 22 167 197 195 206 205 193 192 182 179 178 178 176 175 171 176 180 182 186 189 185 193 194 192 166 178 206 170 161 202
250 215 235 214 171 237 158 152 218 343 221 286 279 243 193 148 155 166 187 202 205 199 183 173 175 179 176 176 173 179 186 184 185 190 196 201 202 199 199 215 211 204 238 266
235 216 256 178 192 190 127 165 169 171 155 193 267 258 218 149 155 164 175 167 188 203 181 174 174 178 175 174 173 177 184 184 182 191 195 205 210 197 197 207 221 223 240 257
225 198 239 210 182 174 196 178 164 127 271 223 150 262 155 151 159 135 144 141 142 147 183 178 169 172 175 174 172 176 179 183 182 185 188 190 185 198 210 206 209 228 241 263
216 230 244 289 200 185 198 214 173 151 126 238 126 250 198 144 150 138 130 152 158 160 174 179 164 175 178 178 175 173 177 178 183 182 183 188 196 203 199 198 207 226 239 251
197 220 172 205 204 171 198 209 176 162 149 223 205 165 195 61 124 126 129 140 169 180 180 177 163 177 181 181 176 171 173 178 180 184 189 191 195 201 207 209 214 227 234 252
203 200 196 213 245 269 208 196 210 207 209 164 224 155 179 154 166 148 130 121 154 191 197 187 175 180 180 179 173 174 174 174 180 185 186 192 202 204 205 209 216 225 236 242
187 189 126 112 357 242 250 198 212 236 216 244 238 220 194 187 141 151 155 177 172 215 225 197 209 171 181 177 172 178 175 175 181 184 189 195 198 200 207 218 221 228 236 241
137 129 103 160 359 337 326 273 229 247 213 207 226 220 132 118 121 136 131 112 109 238 262 294 200 200 178 176 173 181 170 177 179 179 186 191 191 199 210 219 222 230 234 232
104 96 109 148 124 249 247 301 332 78 41 41 38 139 125 133 148 148 159 169 180 202 212 240 309 185 172 171 169 167 165 181 178 173 188 192 193 202 212 219 222 227 231 235
68 89 62 128 186 218 273 263 141 163 59 35 44 120 138 145 92 56 71 172 165 137 143 183 301 166 157 163 167 153 171 183 175 178 198 196 201 210 216 220 224 228 229 238
67 80 99 80 95 105 237 146 112 38 60 4 84 46 30 84 96 193 89 98 96 126 130 84 332 164 160 163 161 162 173 178 184 198 207 206 208 213 219 223 224 226 230 245
10 68 116 118 115 285 355 288 79 109 231 10 98 115 103 95 170 173 64 75 162 165 157 157 165 162 174 163 158 166 177 189 198 206 210 211 212 216 222 227 226 223 227 225
188 163 109 129 95 282 347 321 111 178 58 106 71 46 87 89 14 22 39 17 347 207 175 170 182 168 173 164 166 171 182 194 206 210 214 211 213 218 222 229 217 194 200 218
30 359 124 213 140 172 180 359 2 45 63 31 55 47 44 45 44 8 353 306 311 240 185 171 160 162 135 151 155 76 25 71 57 336 207 208 206 210 207 171 174 181 356 334
98 358 150 193 22 349 335 49 39 7 14 15 339 25 50 32 20 1 339 297 283 236 170 137 101 101 95 95 107 91 62 14 58 350 2 346 88 166 142 115 136 140 216 287
166 49 5 93 55 77 353 2 125 94 54 11 331 3 20 40 4 334 299 84 63 67 89 113 112 106 104 105 99 105 103 92 113 188 251 254 234 211 215 222 204 223 217 276
177 170 116 149 231 90 278 293 80 60 39 51 344 340 349 17 43 91 72 71 82 90 95 88 97 109 117 114 122 144 160 187 211 211 226 207 195 149 174 150 123 137 156 147
Height
725 748 762 746 735 731 735 746 760 755 741 753 767 774 770 768 771 778 780 779 781 784 788 792 797 802 805 809 813 815 818 821 824 827 829 830 830 830 831 832 832 834 835 835
741 758 732 720 722 723 730 746 757 740 735 749 765 773 762 763 767 766 773 776 777 780 785 789 794 799 802 806 810 813 816 819 822 825 826 828 828 828 828 830 831 832 833 834
748 738 716 723 725 730 733 743 747 752 739 741 762 784 782 758 756 761 760 767 772 775 781 787 791 795 799 804 808 811 814 817 820 822 824 826 826 827 827 826 829 831 832 833
734 716 720 725 730 722 751 715 717 735 752 796 756 820 796 779 771 762 760 763 766 773 775 781 788 792 795 801 805 809 812 815 818 820 822 823 824 824 825 826 828 829 830 831
733 723 723 727 720 708 731 710 719 726 750 757 765 793 778 780 786 767 761 759 759 764 769 775 781 788 793 798 802 806 810 813 816 817 819 820 821 822 824 825 826 827 828 829
715 694 703 709 699 700 699 714 726 730 753 797 764 778 799 782 765 747 739 750 751 758 763 768 774 781 788 793 798 803 807 810 813 814 817 818 819 820 822 823 824 826 827 826
715 709 694 689 713 702 707 739 792 800 798 804 753 767 774 742 734 740 744 744 742 744 753 760 766 773 780 786 792 798 803 807 810 812 815 816 818 819 820 821 822 824 824 825
745 749 704 684 706 725 725 743 790 803 806 786 743 774 751 716 716 724 725 728 733 740 744 751 759 767 773 779 785 791 797 803 807 810 812 814 816 817 818 818 820 821 822 824
736 734 684 681 677 695 724 745 722 761 755 782 760 732 716 714 723 724 725 729 734 737 740 745 753 759 766 773 779 784 790 795 802 808 810 811 814 815 816 817 818 819 820 821
707 740 691 680 676 682 707 700 751 766 789 797 765 753 761 739 730 725 729 731 729 729 734 740 748 755 761 767 772 779 785 789 795 801 806 808 811 813 814 815 815 816 818 819
689 717 704 684 699 712 712 726 727 745 763 792 792 777 721 727 723 725 720 717 720 723 729 733 740 747 753 761 766 772 779 784 789 795 800 805 807 809 810 812 814 814 816 816
674 703 721 701 674 672 691 710 726 772 761 759 771 764 702 709 709 712 714 715 712 715 718 725 734 741 749 755 761 766 773 778 783 789 795 800 805 807 809 809 811 813 813 813
668 697 729 715 692 677 696 698 706 716 733 761 777 769 708 705 708 709 715 714 714 714 718 722 730 736 741 747 754 760 767 773 778 784 789 795 799 803 804 805 807 809 809 809
654 686 706 733 708 689 707 697 697 715 754 752 753 742 723 721 716 712 712 712 714 714 717 716 721 729 735 741 747 754 760 766 774 779 784 789 794 797 800 801 803 804 804 805
652 696 685 681 674 675 683 689 693 712 720 746 729 733 726 716 713 710 704 706 711 714 718 716 719 722 727 735 742 748 753 758 765 772 778 782 788 792 796 797 797 798 799 800
647 688 667 680 670 675 690 681 691 692 697 702 708 717 695 682 695 703 705 709 710 711 713 714 714 716 721 727 731 736 742 748 755 764 771 777 783 787 790 792 791 793 795 796
654 673 691 706 677 689 716 689 688 689 677 686 713 700 686 699 702 707 707 705 707 708 709 709 713 714 715 721 726 731 742 747 753 757 768 773 776 780 783 785 787 789 790 791
658 671 686 710 694 739 694 665 671 694 694 685 686 684 685 694 694 696 697 702 703 706 707 705 707 706 709 716 723 731 741 749 749 755 763 767 771 775 777 780 782 784 785 786
651 675 708 720 724 700 684 677 685 690 711 685 687 682 676 683 696 700 691 693 698 700 704 702 702 704 706 711 719 729 737 741 747 754 760 762 766 768 770 772 776 779 781 782
669 675 708 734 749 738 700 676 669 677 727 687 683 696 691 691 723 716 693 692 694 696 698 697 699 702 704 709 716 724 733 740 745 751 752 754 756 759 763 767 769 771 773 778
691 697 717 736 750 730 693 682 659 739 733 687 683 689 700 714 710 697 690 691 690 692 692 695 697 701 704 709 716 723 730 736 739 742 744 747 750 755 758 761 763 764 767 771
701 705 714 721 734 742 695 688 707 704 688 689 689 688 691 694 693 688 686 690 692 689 689 691 695 697 700 706 713 722 727 730 733 736 738 741 746 749 752 757 762 762 764 770
710 700 707 714 721 712 713 712 693 690 695 694 691 689 690 690 691 690 689 691 689 687 686 687 690 694 700 704 714 727 743 736 733 746 730 736 738 746 750 751 757 761 766 768
691 704 719 711 720 711 709 699 702 703 696 696 698 693 692 692 687 689 690 692 689 684 684 686 690 697 706 710 714 721 725 742 729 747 748 740 749 753 753 754 759 760 762 763
700 703 712 714 709 710 714 708 706 704 701 700 709 698 694 693 695 694 695 697 694 690 688 686 693 701 709 711 715 716 718 730 741 752 751 753 752 750 749 753 757 758 758 760
697 710 719 734 724 719 728 712 700 702 705 709 710 706 699 697 699 696 699 698 697 697 698 700 701 702 709 710 714 721 723 726 740 743 743 747 747 745 748 753 754 756 759 763